Temperature
7 6 6 6 5 5 5 5 5 5 4 4 4 4 4 4 4 3 3 2 2 2 1 1 1 0 -0 -1 -1 -1 -1 -2 -2 -1 -0 -0 -1 -1 -1 -1 -1 -1 -1
6 6 6 5 5 5 4 4 4 4 4 4 3 3 3 3 3 2 2 1 1 1 0 -0 -0 -1 -1 -1 -1 -2 -2 -2 -2 -2 -1 -1 -1 -2 -2 -2 -2 -2 -2
6 5 5 5 4 4 4 4 4 3 3 3 3 3 2 2 2 2 1 0 -0 -0 -1 -1 -1 -2 -2 -2 -2 -2 -2 -2 -2 -2 -2 -2 -2 -2 -3 -3 -3 -3 -3
5 5 4 4 4 4 3 3 3 3 3 3 2 2 2 1 1 1 0 -0 -1 -1 -1 -2 -2 -2 -2 -3 -3 -3 -3 -3 -3 -3 -3 -3 -3 -3 -3 -3 -3 -3 -3
4 4 4 4 3 3 3 3 3 3 2 2 2 1 1 1 0 -0 -1 -1 -2 -2 -2 -3 -3 -3 -3 -3 -3 -3 -3 -3 -3 -3 -3 -3 -3 -3 -3 -4 -4 -4 -4
4 4 3 3 3 3 2 2 2 2 1 1 1 0 -0 -0 -1 -1 -2 -3 -3 -3 -3 -3 -4 -4 -3 -3 -3 -3 -3 -3 -3 -3 -3 -3 -3 -3 -3 -4 -4 -4 -4
4 3 3 2 2 2 2 1 1 0 0 -0 -0 -1 -1 -1 -2 -2 -3 -4 -4 -4 -4 -4 -4 -4 -4 -4 -4 -4 -3 -3 -3 -3 -3 -3 -3 -3 -4 -4 -4 -4 -4
3 3 2 2 1 1 1 0 -0 -1 -1 -1 -2 -2 -2 -2 -2 -3 -4 -4 -4 -4 -4 -4 -4 -4 -4 -4 -4 -4 -4 -4 -4 -4 -3 -3 -3 -4 -4 -4 -4 -4 -4
2 2 1 1 0 0 -0 -1 -1 -1 -2 -2 -2 -3 -3 -3 -3 -4 -5 -5 -5 -5 -5 -4 -4 -4 -4 -4 -4 -4 -4 -4 -4 -4 -4 -4 -4 -4 -4 -4 -4 -4 -5
1 1 1 0 -0 -1 -1 -1 -2 -2 -3 -3 -3 -4 -4 -4 -4 -5 -5 -5 -5 -5 -5 -4 -4 -4 -4 -4 -4 -4 -4 -4 -4 -4 -4 -4 -4 -4 -4 -4 -4 -4 -5
1 0 0 -0 -1 -1 -1 -2 -2 -3 -3 -4 -4 -5 -5 -5 -5 -5 -5 -5 -5 -5 -5 -4 -4 -4 -4 -4 -4 -4 -4 -3 -4 -4 -4 -4 -4 -4 -4 -4 -4 -5 -5
0 -0 -0 -1 -1 -2 -2 -2 -3 -4 -4 -5 -5 -5 -5 -6 -6 -6 -5 -5 -5 -5 -5 -5 -5 -4 -4 -4 -4 -4 -4 -4 -4 -4 -4 -4 -4 -4 -4 -5 -5 -5 -5
-0 -0 -1 -1 -2 -2 -3 -3 -4 -5 -5 -6 -6 -6 -6 -6 -6 -6 -6 -6 -6 -5 -5 -5 -5 -4 -4 -4 -4 -4 -4 -4 -4 -4 -4 -5 -5 -5 -5 -5 -5 -5 -6
-1 -1 -2 -2 -2 -3 -4 -4 -5 -6 -6 -6 -6 -6 -6 -6 -6 -6 -6 -6 -6 -5 -5 -5 -5 -4 -4 -4 -4 -4 -5 -5 -5 -5 -5 -5 -5 -5 -5 -6 -6 -6 -6
-1 -2 -2 -3 -3 -4 -4 -5 -6 -6 -7 -7 -7 -6 -6 -6 -6 -6 -6 -6 -6 -5 -5 -5 -5 -5 -5 -5 -5 -5 -5 -5 -5 -5 -5 -6 -6 -6 -6 -6 -6 -6 -6
-2 -2 -3 -4 -4 -5 -5 -6 -6 -6 -6 -7 -7 -7 -7 -7 -7 -6 -6 -6 -6 -6 -5 -5 -5 -6 -6 -6 -6 -6 -6 -6 -6 -6 -6 -6 -6 -6 -6 -6 -6 -6 -7
-3 -3 -4 -4 -5 -5 -6 -6 -7 -6 -7 -7 -7 -7 -7 -7 -7 -7 -7 -6 -6 -6 -6 -6 -6 -6 -6 -6 -6 -6 -6 -6 -6 -6 -6 -6 -6 -6 -7 -7 -7 -7 -7
-3 -3 -4 -5 -5 -6 -6 -7 -7 -7 -7 -7 -7 -7 -7 -7 -7 -7 -7 -7 -6 -6 -7 -7 -7 -7 -7 -6 -6 -6 -6 -6 -6 -6 -6 -6 -7 -7 -7 -7 -7 -7 -7
-4 -4 -5 -5 -6 -6 -7 -7 -7 -8 -8 -8 -8 -7 -7 -7 -7 -7 -7 -7 -7 -7 -7 -7 -7 -7 -7 -7 -7 -7 -7 -6 -6 -7 -7 -7 -7 -7 -7 -7 -7 -7 -8
-4 -5 -5 -6 -6 -7 -7 -7 -8 -8 -8 -8 -8 -8 -8 -8 -8 -7 -7 -7 -7 -7 -7 -7 -7 -7 -7 -7 -7 -7 -7 -7 -7 -7 -7 -7 -7 -7 -7 -7 -7 -8 -8
-5 -5 -6 -6 -7 -7 -7 -8 -8 -8 -8 -8 -8 -8 -8 -8 -8 -8 -8 -8 -8 -8 -8 -8 -7 -7 -7 -7 -7 -7 -7 -7 -7 -7 -7 -7 -7 -7 -8 -8 -8 -8 -8
-5 -6 -6 -7 -7 -7 -8 -8 -8 -8 -9 -9 -9 -8 -9 -9 -8 -8 -8 -8 -8 -8 -8 -8 -8 -8 -8 -7 -7 -7 -7 -7 -7 -7 -7 -8 -8 -8 -8 -8 -8 -9 -9
-6 -6 -7 -7 -7 -8 -8 -8 -9 -9 -9 -9 -9 -9 -9 -9 -9 -8 -8 -8 -8 -8 -8 -8 -8 -8 -8 -8 -8 -7 -7 -7 -7 -8 -8 -8 -8 -8 -8 -9 -9 -9 -9
-6 -7 -7 -7 -8 -8 -9 -9 -9 -9 -9 -9 -9 -9 -9 -9 -9 -9 -9 -8 -8 -8 -8 -8 -8 -8 -8 -8 -8 -8 -8 -8 -8 -8 -8 -8 -8 -9 -9 -9 -9 -9 -9
-7 -7 -8 -8 -8 -9 -9 -9 -9 -10 -10 -10 -10 -10 -10 -9 -9 -9 -9 -9 -8 -8 -8 -8 -8 -8 -8 -8 -8 -8 -8 -8 -8 -8 -8 -9 -9 -9 -9 -9 -9 -10 -10
-8 -8 -8 -8 -9 -9 -9 -10 -10 -10 -10 -10 -10 -10 -10 -10 -9 -9 -9 -9 -9 -8 -8 -8 -8 -8 -8 -8 -8 -8 -8 -8 -8 -8 -9 -9 -9 -9 -9 -10 -10 -10 -10
Wind_Speed
4 5 5 6 6 8 8 9 10 11 12 13 14 14 15 16 16 16 16 17 18 18 18 19 20 20 17 16 16 16 16 17 20 23 18 17 19 18 17 17 19 19 19
5 6 7 7 8 9 10 11 12 13 13 14 15 16 16 17 17 18 19 18 19 20 20 20 21 17 20 18 16 18 17 18 19 24 22 18 19 18 17 18 16 16 17
6 7 8 9 10 11 12 13 13 14 15 16 16 17 17 17 18 18 19 19 20 20 20 20 20 20 21 18 18 18 16 16 17 19 22 18 15 14 15 17 19 17 17
6 8 9 10 11 12 13 14 14 15 16 17 17 17 17 17 17 18 18 18 19 20 20 20 20 20 20 20 18 19 17 17 16 17 19 17 15 14 12 14 15 15 15
8 9 10 11 12 13 14 15 15 16 16 17 18 18 18 15 14 14 14 17 18 19 20 20 21 23 25 21 17 15 15 15 15 16 17 16 15 12 12 12 14 14 15
9 10 11 12 13 13 15 16 16 17 17 18 18 19 19 16 20 25 22 20 18 18 18 19 20 21 24 28 30 28 24 17 16 16 16 17 16 15 13 12 13 13 13
10 12 12 12 13 15 16 17 17 18 18 18 18 19 20 20 24 26 26 22 21 19 19 18 16 16 21 16 21 26 26 29 27 19 18 19 18 15 14 15 15 14 15
12 12 13 13 14 15 16 17 18 17 18 18 19 20 20 21 24 26 26 22 19 19 19 19 19 18 17 17 14 15 17 18 20 17 14 15 16 15 12 13 14 14 13
13 13 14 14 15 16 17 18 18 18 18 18 18 20 20 21 24 25 25 17 16 18 18 18 19 19 23 25 18 16 17 15 20 25 25 24 25 25 19 11 11 11 12
14 14 15 15 16 17 18 19 18 17 18 18 19 19 20 21 23 24 25 15 16 16 16 16 21 22 24 25 18 16 17 15 13 14 16 18 17 18 21 13 10 11 9
14 15 16 16 17 18 18 17 18 17 18 18 19 18 18 20 22 23 24 15 15 16 14 14 13 22 25 26 24 17 19 18 13 13 12 11 11 10 10 10 9 10 11
15 16 17 17 16 15 17 18 17 18 18 18 17 18 15 16 18 20 24 24 22 17 15 14 15 24 26 27 22 20 23 20 11 10 10 9 9 9 9 9 9 10 10
16 17 17 17 16 16 17 17 17 15 14 15 15 16 16 15 16 23 24 25 26 18 16 22 25 27 25 19 19 22 18 11 9 10 10 9 8 7 7 6 7 8 9
17 17 16 17 17 16 14 14 14 14 15 15 15 16 16 16 15 14 15 17 20 18 16 18 23 23 18 17 17 13 9 9 9 9 8 8 7 6 7 7 7 7 7
17 16 16 15 16 16 15 14 15 15 16 17 16 16 17 18 19 25 22 17 16 16 17 13 11 11 10 9 9 9 8 7 8 7 7 7 7 7 7 6 6 7 8
15 16 14 14 14 14 15 16 16 18 24 25 25 24 20 23 29 30 29 28 28 25 18 12 11 11 11 10 9 9 8 7 7 7 7 7 7 7 6 6 6 7 8
16 16 14 14 14 14 14 15 17 17 20 22 24 25 25 27 28 28 27 26 25 21 13 11 11 11 10 10 9 8 8 7 6 6 7 7 6 6 6 6 7 8 8
16 15 14 13 14 14 14 15 15 17 17 16 18 22 24 25 26 26 25 20 14 12 9 10 10 10 10 9 9 8 7 6 6 6 6 6 6 6 7 7 7 8 8
14 13 13 13 13 14 14 15 15 17 16 16 16 17 20 22 23 22 19 11 11 11 10 10 10 10 10 9 8 8 7 6 6 6 6 6 6 6 7 7 7 9 9
13 16 16 14 14 14 14 14 15 15 15 15 15 15 15 16 15 14 12 11 11 11 11 11 10 10 9 9 8 7 7 6 6 6 6 6 6 6 7 8 8 8 8
12 13 16 14 13 13 13 14 14 15 15 15 15 17 21 16 14 14 13 11 11 11 11 11 10 10 9 8 7 7 8 7 6 6 6 6 6 6 6 7 8 8 8
12 12 12 13 13 13 14 14 14 15 15 16 15 16 21 15 13 12 12 12 11 10 10 10 9 9 8 7 7 7 7 7 6 6 6 6 6 6 7 7 8 8 9
13 13 13 13 13 16 15 14 14 14 15 15 15 15 14 13 13 13 12 12 11 11 10 9 9 9 8 7 7 7 7 7 6 6 7 7 7 7 7 8 9 10 10
13 14 14 14 13 13 14 14 14 14 15 15 15 14 14 13 13 13 13 12 11 11 10 9 9 10 11 8 7 6 6 7 6 6 8 8 8 7 8 8 9 11 11
13 13 13 13 13 13 14 14 14 14 14 14 14 14 14 13 13 13 12 11 12 11 11 10 8 8 10 10 9 8 9 11 10 8 7 7 8 9 9 10 10 11 12
13 13 13 13 13 13 13 14 14 15 14 14 13 13 14 13 13 13 12 11 11 10 10 9 9 10 10 9 10 11 12 12 12 12 8 8 9 9 10 10 12 12 13
Wind_Direction
338 327 319 319 316 311 307 306 306 304 303 300 298 296 294 292 290 286 281 279 277 275 271 268 266 265 264 262 258 255 253 252 262 272 271 268 263 257 255 254 256 257 256
326 317 315 314 311 308 308 308 306 304 302 300 298 295 293 291 290 288 287 284 281 278 276 274 271 270 266 264 261 258 256 253 255 267 272 270 265 260 255 254 254 255 256
320 313 312 311 311 310 309 308 306 303 301 300 297 295 293 291 290 288 287 286 283 281 280 277 276 273 270 266 263 261 259 258 255 261 269 271 268 261 257 254 253 254 256
314 310 309 311 310 309 307 305 303 302 300 299 297 294 292 289 285 284 284 283 283 281 278 276 274 271 269 268 267 264 263 261 260 260 266 269 267 261 253 253 254 251 253
309 307 308 309 308 305 304 303 302 300 298 297 295 293 291 288 281 277 276 277 276 277 276 274 271 269 266 266 264 262 258 258 259 260 262 265 263 256 248 245 249 254 254
305 305 308 306 305 304 303 303 302 301 299 298 296 294 292 289 287 289 289 287 283 280 279 278 275 273 271 270 270 268 263 258 256 257 261 260 261 256 250 244 244 247 252
303 304 304 304 303 303 304 302 302 302 300 299 297 295 293 292 293 293 292 291 288 286 285 284 282 278 277 271 271 273 274 272 266 262 262 261 263 258 253 247 240 239 243
301 302 304 304 302 303 303 302 302 302 301 299 298 297 296 294 295 296 297 295 289 286 285 284 283 281 277 274 268 266 266 266 266 268 262 262 261 261 252 247 247 246 247
301 304 306 304 302 302 302 303 304 303 300 300 299 298 297 297 298 299 298 295 290 288 286 283 282 281 280 281 278 272 271 268 267 264 262 262 260 258 251 244 238 237 242
305 305 304 303 301 301 301 302 302 301 299 300 298 297 296 297 298 299 299 295 293 291 288 284 282 281 282 282 279 275 273 273 268 265 264 264 265 265 262 248 235 235 237
304 302 301 300 300 300 300 300 301 300 299 299 298 298 297 297 298 298 298 297 294 293 292 289 285 285 286 286 284 278 275 275 270 266 263 257 251 247 247 243 231 231 234
302 300 299 300 300 299 299 300 300 301 301 301 301 302 301 300 299 299 299 299 299 298 295 293 289 289 289 288 287 282 283 283 278 272 268 260 252 245 238 232 229 228 228
302 301 301 301 300 299 299 300 301 301 299 301 301 301 302 303 302 302 303 303 302 298 292 291 292 294 294 292 286 285 286 282 273 269 268 264 257 248 237 231 227 228 229
300 301 301 301 301 300 298 296 297 298 298 298 299 300 302 303 304 305 304 304 302 299 295 293 294 293 288 284 284 284 279 273 269 267 267 267 262 251 238 231 229 222 228
300 300 300 300 299 300 299 296 295 291 289 294 296 298 301 302 302 305 306 304 303 299 301 297 294 293 289 286 283 278 275 271 270 265 262 262 258 251 242 227 224 222 227
299 300 300 301 300 299 300 299 289 286 291 292 292 294 296 296 302 305 306 306 306 305 305 299 298 297 295 293 290 286 278 269 266 263 261 259 255 249 242 227 222 226 231
294 296 298 298 299 299 300 301 303 302 297 296 296 298 299 302 305 307 309 309 307 308 303 298 297 297 295 293 290 286 281 275 270 263 260 257 253 249 244 236 229 230 234
292 293 292 294 296 297 297 298 299 303 306 305 303 303 304 306 308 309 310 311 307 305 299 297 297 296 295 293 290 287 282 276 267 262 258 255 251 248 247 243 236 235 238
293 292 293 294 294 294 295 296 297 299 300 303 305 306 308 311 310 307 309 306 304 303 301 297 295 293 293 292 290 286 280 275 269 265 261 256 252 248 247 245 245 242 241
291 289 291 294 295 295 296 297 298 299 301 302 304 307 311 311 309 310 310 307 301 300 300 298 296 294 292 290 289 285 280 273 266 260 260 257 252 248 248 247 247 246 245
293 293 293 292 292 294 295 296 297 298 300 301 301 303 306 308 305 304 306 305 302 300 299 298 295 294 291 288 286 283 278 274 269 264 260 257 253 251 251 251 249 248 252
292 291 292 292 292 293 295 296 297 297 299 300 301 304 306 305 301 300 302 303 302 299 297 294 292 290 287 284 283 280 277 274 271 266 262 260 257 255 254 252 252 251 251
290 289 291 292 294 295 297 296 296 296 298 299 301 302 304 303 302 301 302 303 302 300 296 292 290 289 287 282 278 274 273 275 276 272 267 263 259 257 256 255 255 257 256
289 289 292 295 296 295 295 296 297 296 297 299 300 301 302 302 301 301 302 301 301 299 296 292 288 288 288 286 281 275 272 275 276 269 262 262 263 262 260 260 261 261 261
290 291 293 295 295 294 295 296 296 296 298 299 300 301 301 301 301 302 302 301 300 298 296 294 290 289 289 287 284 281 279 278 274 273 265 262 263 263 265 266 266 268 266
293 293 293 294 293 293 294 295 295 297 298 299 300 300 300 300 300 301 302 300 301 300 297 293 291 291 292 289 285 284 283 281 278 274 271 268 267 267 268 270 271 270 271
Height
1517 1515 1513 1510 1508 1505 1502 1499 1496 1492 1488 1484 1480 1476 1472 1467 1463 1459 1454 1450 1445 1441 1437 1433 1429 1427 1423 1420 1417 1414 1411 1408 1400 1390 1394 1395 1394 1392 1390 1389 1388 1387 1385
1513 1511 1508 1506 1503 1500 1497 1494 1490 1486 1481 1477 1472 1467 1463 1458 1454 1449 1444 1440 1435 1430 1426 1423 1419 1416 1412 1410 1407 1403 1400 1398 1393 1384 1381 1383 1383 1382 1381 1379 1378 1377 1376
1509 1507 1504 1501 1498 1495 1491 1487 1483 1478 1473 1469 1464 1458 1453 1448 1443 1439 1434 1429 1424 1419 1415 1411 1407 1405 1401 1398 1396 1392 1389 1387 1384 1378 1371 1372 1372 1372 1371 1369 1368 1367 1365
1505 1502 1499 1496 1493 1489 1485 1480 1475 1470 1465 1460 1455 1449 1443 1438 1433 1428 1423 1417 1412 1407 1403 1399 1395 1392 1389 1387 1384 1381 1379 1376 1374 1370 1364 1362 1362 1362 1361 1359 1358 1357 1356
1500 1497 1494 1490 1486 1482 1477 1473 1467 1462 1456 1451 1445 1439 1434 1428 1422 1417 1411 1406 1400 1395 1391 1388 1384 1381 1378 1376 1373 1370 1368 1365 1363 1359 1355 1353 1352 1352 1351 1350 1349 1348 1347
1496 1492 1488 1484 1480 1475 1470 1465 1459 1453 1448 1442 1436 1429 1423 1418 1413 1407 1402 1396 1391 1386 1381 1377 1374 1371 1367 1364 1362 1360 1359 1355 1352 1350 1346 1343 1342 1343 1342 1341 1340 1339 1338
1491 1487 1482 1478 1473 1468 1462 1457 1451 1445 1439 1433 1427 1420 1414 1408 1403 1397 1392 1387 1382 1376 1372 1367 1364 1360 1358 1354 1351 1349 1347 1345 1343 1341 1336 1333 1333 1333 1333 1331 1330 1329 1329
1485 1480 1476 1471 1465 1460 1454 1449 1443 1437 1430 1424 1418 1412 1405 1399 1394 1388 1383 1378 1372 1367 1363 1359 1355 1351 1348 1345 1341 1338 1335 1333 1332 1330 1327 1324 1324 1323 1323 1322 1321 1321 1321
1479 1474 1469 1464 1458 1452 1447 1441 1435 1428 1421 1415 1409 1402 1395 1389 1385 1379 1375 1369 1363 1359 1355 1351 1347 1343 1339 1337 1333 1329 1326 1323 1321 1319 1317 1315 1314 1314 1314 1313 1312 1312 1311
1472 1468 1463 1457 1451 1445 1439 1433 1426 1420 1413 1406 1399 1394 1387 1381 1376 1371 1367 1362 1356 1351 1347 1342 1339 1335 1331 1328 1325 1321 1317 1314 1312 1309 1308 1306 1305 1304 1305 1304 1304 1304 1303
1466 1460 1455 1450 1444 1438 1431 1425 1418 1411 1404 1398 1391 1385 1379 1374 1368 1364 1360 1356 1350 1344 1339 1334 1330 1327 1323 1320 1317 1313 1309 1306 1303 1301 1298 1297 1296 1295 1295 1295 1296 1296 1296
1459 1453 1448 1442 1436 1430 1423 1417 1410 1404 1396 1389 1383 1377 1371 1367 1362 1357 1353 1348 1343 1337 1331 1326 1322 1318 1314 1311 1307 1304 1301 1298 1295 1293 1291 1289 1288 1287 1287 1287 1287 1287 1288
1451 1446 1440 1434 1428 1422 1416 1409 1402 1396 1390 1383 1376 1369 1364 1359 1354 1350 1345 1340 1335 1330 1324 1319 1314 1310 1306 1301 1298 1295 1293 1290 1287 1285 1283 1282 1281 1281 1280 1280 1280 1280 1281
1443 1438 1432 1426 1420 1414 1408 1401 1395 1389 1383 1377 1370 1364 1357 1352 1347 1342 1337 1332 1326 1321 1316 1311 1306 1302 1297 1293 1290 1287 1284 1282 1280 1278 1276 1275 1275 1274 1274 1273 1274 1274 1274
1436 1430 1424 1418 1412 1405 1400 1394 1388 1382 1377 1371 1364 1358 1351 1344 1340 1336 1331 1324 1319 1314 1309 1303 1299 1294 1290 1286 1283 1280 1278 1275 1274 1272 1271 1269 1269 1268 1268 1268 1268 1268 1269
1428 1422 1416 1410 1404 1397 1391 1384 1379 1374 1369 1363 1358 1352 1345 1339 1333 1328 1322 1317 1312 1307 1302 1297 1292 1288 1284 1280 1277 1274 1272 1270 1268 1267 1265 1264 1264 1263 1263 1263 1263 1263 1264
1421 1415 1409 1402 1396 1390 1384 1377 1369 1364 1360 1355 1349 1344 1338 1332 1326 1320 1315 1309 1305 1300 1296 1291 1287 1283 1279 1275 1272 1269 1267 1265 1263 1262 1261 1260 1259 1259 1258 1258 1258 1258 1258
1413 1407 1401 1395 1389 1383 1377 1371 1364 1357 1350 1344 1340 1335 1330 1324 1318 1313 1308 1303 1297 1294 1290 1285 1281 1277 1274 1270 1267 1265 1262 1260 1259 1257 1256 1255 1255 1254 1254 1253 1253 1253 1253
1405 1399 1394 1388 1382 1376 1370 1364 1358 1352 1345 1338 1332 1327 1322 1316 1311 1306 1302 1297 1292 1288 1284 1280 1276 1272 1269 1266 1263 1260 1258 1256 1254 1253 1252 1251 1250 1249 1249 1248 1248 1247 1247
1396 1391 1386 1380 1375 1369 1364 1358 1352 1346 1339 1333 1327 1321 1315 1310 1304 1300 1296 1292 1287 1283 1279 1275 1271 1267 1264 1261 1258 1256 1254 1252 1250 1249 1248 1247 1246 1245 1244 1243 1242 1242 1241
1388 1383 1378 1373 1368 1362 1357 1351 1345 1340 1333 1327 1321 1316 1311 1306 1300 1295 1291 1286 1282 1277 1273 1269 1265 1262 1259 1256 1253 1251 1249 1248 1246 1244 1243 1242 1241 1240 1238 1237 1236 1236 1235
1381 1375 1371 1366 1360 1355 1350 1344 1339 1333 1327 1321 1314 1309 1304 1300 1294 1290 1285 1281 1276 1272 1268 1264 1260 1257 1254 1251 1249 1247 1245 1244 1242 1240 1239 1237 1236 1234 1233 1232 1230 1229 1228
1373 1368 1363 1358 1353 1348 1342 1337 1332 1326 1320 1315 1309 1303 1298 1294 1289 1284 1280 1275 1271 1267 1263 1259 1255 1252 1250 1247 1245 1243 1241 1239 1238 1236 1234 1232 1230 1229 1227 1226 1224 1223 1221
1366 1361 1356 1351 1346 1340 1335 1330 1325 1319 1314 1308 1303 1298 1293 1288 1283 1279 1274 1270 1266 1262 1258 1254 1251 1248 1245 1243 1240 1238 1237 1235 1233 1231 1229 1227 1225 1223 1221 1219 1218 1216 1214
1358 1353 1348 1343 1338 1333 1328 1322 1317 1312 1307 1302 1297 1292 1287 1282 1278 1273 1269 1265 1261 1257 1253 1250 1246 1243 1241 1238 1236 1234 1232 1230 1228 1226 1224 1222 1219 1217 1215 1213 1211 1209 1206
1350 1346 1341 1336 1331 1325 1320 1315 1310 1305 1301 1295 1290 1285 1281 1276 1272 1268 1264 1260 1256 1252 1248 1245 1242 1239 1237 1234 1232 1229 1227 1225 1223 1221 1219 1216 1214 1211 1209 1207 1204 1201 1198